Location: Munkebjergskolens Observatorium
(55.3864°N, 10.3987°E)
Time: 10:26:53
(UTC+02:00)

JY1SAT - Pass Details

Date: 02 April 2023
Orbit: 555 x 574 km, 97.6° (Epoch: 03 June)

Event Time Altitude Azimuth Distance (km) Brightness Sun altitude
Exits shadow 21:58:07 33° 135° (SE) 957 ? -16.5°
Maximum altitude 21:59:42 59° 70° (ENE) 660 ? -16.7°
Drops below altitude 10° 22:03:42 10° 351° (N) 1,879 ? -17.1°
Sets 22:05:53 0° 348° (NNW) 2,786 ? -17.4°
